Location: Raleigh
(35.7720°N, 78.6390°W)
Time: 23:20:56
(UTC-04:00)

JAS-2 - Visible Passes

Search period start: 29 April 2016 00:00
Search period end: 09 May 2016 00:00
Orbit: 800 x 1321 km, 98.6° (Epoch: 29 April)

Date Brightness Start Highest point End Pass type
(mag) Time Alt. Az. Time Alt. Az. Time Alt. Az.
29 Apr 10.7 01:50:33 10° NNE 01:56:56 47° ENE 01:56:56 47° ENE visible
29 Apr 10.9 03:36:02 10° N 03:42:41 33° WNW 03:43:26 32° WNW visible
30 Apr 11.8 00:57:15 10° NE 01:01:20 19° ENE 01:01:20 19° ENE visible
30 Apr 10.1 02:40:24 10° N 02:47:50 75° NW 02:47:50 75° NW visible
30 Apr 11.8 04:28:09 10° NNW 04:31:57 15° WNW 04:34:19 13° WNW visible
01 May 10.8 01:45:43 10° NNE 01:52:14 45° ENE 01:52:14 45° ENE visible
01 May 10.8 03:31:03 10° N 03:37:52 35° WNW 03:38:43 34° W visible
02 May 11.8 00:52:37 10° NE 00:56:37 18° E 00:56:37 18° E visible
02 May 10.0 02:35:30 10° N 02:43:07 79° NW 02:43:07 79° NW visible
02 May 11.7 04:22:58 10° NNW 04:27:10 16° WNW 04:29:36 14° WNW visible
03 May 10.8 01:40:54 10° NNE 01:47:30 43° E 01:47:30 43° E visible
03 May 10.8 03:26:06 10° N 03:33:04 37° WNW 03:33:59 36° W visible
04 May 11.9 00:48:01 10° NE 00:51:53 17° E 00:51:53 17° E visible
04 May 10.0 02:30:37 10° NNE 02:38:22 84° NW 02:38:22 84° NW visible
04 May 11.7 04:17:51 10° NNW 04:22:22 17° WNW 04:24:52 14° W visible
05 May 10.9 01:36:07 10° NNE 01:42:45 41° E 01:42:45 41° E visible
05 May 10.7 03:21:09 10° N 03:28:16 40° WNW 03:29:14 38° W visible
06 May 11.9 00:43:30 10° NE 00:47:07 16° E 00:47:07 16° E visible
06 May 10.0 02:25:46 10° NNE 02:33:37 88° NNW 02:33:37 88° NNW visible
06 May 11.6 04:12:46 10° NNW 04:17:35 18° WNW 04:20:06 15° W visible
07 May 10.9 01:31:21 10° NNE 01:37:59 38° E 01:37:59 38° E visible
07 May 10.6 03:16:14 10° N 03:23:28 42° WNW 03:24:29 40° W visible
08 May 12.0 00:39:02 10° ENE 00:42:21 14° E 00:42:21 14° E visible
08 May 10.0 02:20:55 10° NNE 02:28:50 86° E 02:28:50 86° E visible
08 May 11.6 04:07:44 10° NNW 04:12:48 19° WNW 04:15:20 16° W visible
